This is the latest recevied weather packets stored in our database for station/object OE6PWE-13. If no packets are shown the sender has not sent any weather packets the latest 10 day(s).
| Time | Temp. | Humidity | Pressure | Rain* | Wind** | Luminosity | Snow |
|---|---|---|---|---|---|---|---|
| 1777869020 | 6.67° C | 98% | 1018 hPa | 0 mm | - | - | - |
| 1777868113 | 6.67° C | 97% | 1018 hPa | 0 mm | - | - | - |
| 1777867220 | 6.67° C | 97% | 1018 hPa | 0 mm | - | - | - |
| 1777863620 | 7.22° C | 95% | 1018 hPa | 0 mm | - | - | - |
| 1777862713 | 7.22° C | 94% | 1018 hPa | 0 mm | - | - | - |
| 1777844713 | 13.33° C | 74% | 1017 hPa | 0 mm | - | - | - |
| 1777842915 | 15° C | 66% | 1016 hPa | 0 mm | - | - | - |
| 1777840224 | 16.11° C | 62% | 1016 hPa | 0 mm | - | - | - |
| 1777839313 | 16.11° C | 61% | 1016 hPa | 0 mm | - | - | - |
| 1777833021 | 18.89° C | 55% | 1015 hPa | 0 mm | - | - | - |
| 1777821313 | 26.11° C | 37% | 1014 hPa | 0 mm | - | - | - |
| 1777820421 | 26.11° C | 36% | 1014 hPa | 0 mm | - | - | - |
| 1777809621 | 25° C | 39% | 1016 hPa | 0 mm | - | - | - |
| 1777802421 | 23.33° C | 45% | 1018 hPa | 0 mm | - | - | - |
| 1777800621 | 23.33° C | 45% | 1018 hPa | 0 mm | - | - | - |
| 1777799713 | 22.22° C | 47% | 1018 hPa | 0 mm | - | - | - |
| 1777798819 | 22.22° C | 49% | 1018 hPa | 0 mm | - | - | - |
| 1777797020 | 20.56° C | 49% | 1018 hPa | 0 mm | - | - | - |
| 1777796114 | 20.56° C | 52% | 1018 hPa | 0 mm | - | - | - |
| 1777795220 | 20° C | 53% | 1019 hPa | 0 mm | - | - | - |
| 1777794313 | 19.44° C | 54% | 1018 hPa | 0 mm | - | - | - |
| 1777793421 | 20° C | 51% | 1018 hPa | 0 mm | - | - | - |
| 1777792512 | 17.22° C | 54% | 1019 hPa | 0 mm | - | - | - |
| 1777791620 | 15° C | 65% | 1019 hPa | 0 mm | - | - | - |
| 1777790714 | 11.67° C | 73% | 1020 hPa | 0 mm | - | - | - |
* Rain latest hour (hover to see other rain measurements)
** Current wind speed in m/s (hover to see current wind gust speed)